This is the latest recevied weather packets stored in our database for station/object K7ZQU-7. If no packets are shown the sender has not sent any weather packets the latest 10 day(s).
| Time | Temp. | Humidity | Pressure | Rain* | Wind** | Luminosity | Snow |
|---|---|---|---|---|---|---|---|
| 1777523353 | 6.67° C | 56% | 1019.8 hPa | 0 mm | 0.89 m/s, 124° | - | - |
| 1777523054 | 7.22° C | 56% | 1019.9 hPa | 0 mm | 0.89 m/s, 201° | - | - |
| 1777522752 | 7.22° C | 56% | 1019.9 hPa | 0 mm | 0.45 m/s, 219° | - | - |
| 1777521556 | 7.22° C | 55% | 1019.8 hPa | 0 mm | 1.79 m/s, 107° | - | - |
| 1777520656 | 7.78° C | 55% | 1019.7 hPa | 0 mm | 0 m/s | - | - |
| 1777520357 | 7.78° C | 54% | 1019.8 hPa | 0 mm | 0 m/s | - | - |
| 1777520058 | 7.78° C | 54% | 1019.7 hPa | 0 mm | 0.89 m/s, 155° | - | - |
| 1777519756 | 7.78° C | 53% | 1019.7 hPa | 0 mm | 0.89 m/s, 158° | - | - |
| 1777519457 | 8.33° C | 53% | 1019.6 hPa | 0 mm | 0 m/s | - | - |
| 1777518859 | 8.33° C | 52% | 1019.6 hPa | 0 mm | 0.45 m/s, 212° | - | - |
| 1777518560 | 8.89° C | 51% | 1019.6 hPa | 0 mm | 0 m/s | - | - |
| 1777518258 | 8.89° C | 50% | 1019.6 hPa | 0 mm | 0 m/s | - | - |
| 1777517960 | 9.44° C | 50% | 1019.6 hPa | 0 mm | 0.89 m/s, 245° | - | - |
| 1777517063 | 10° C | 48% | 1019.6 hPa | 0 mm | 0.45 m/s, 134° | - | - |
| 1777516761 | 10° C | 47% | 1019.7 hPa | 0 mm | 0.89 m/s, 97° | - | - |
| 1777516462 | 10° C | 47% | 1019.6 hPa | 0 mm | 0.45 m/s, 108° | - | - |
| 1777516163 | 10.56° C | 45% | 1019.6 hPa | 0 mm | 1.79 m/s, 198° | - | - |
| 1777515864 | 10.56° C | 45% | 1019.6 hPa | 0 mm | 0.89 m/s, 120° | - | - |
| 1777515565 | 10.56° C | 44% | 1019.6 hPa | 0 mm | 1.34 m/s, 103° | - | - |
| 1777515264 | 11.11° C | 43% | 1019.6 hPa | 0 mm | 1.34 m/s, 55° | - | - |
| 1777514666 | 11.11° C | 41% | 1019.6 hPa | 0 mm | 0.89 m/s, 13° | - | - |
| 1777514367 | 11.67° C | 39% | 1019.5 hPa | 0 mm | 0.89 m/s, 48° | - | - |
| 1777513766 | 11.67° C | 36% | 1019.6 hPa | 0 mm | 1.79 m/s, 53° | - | - |
| 1777513467 | 11.67° C | 36% | 1019.6 hPa | 0 mm | 0.45 m/s, 281° | - | - |
| 1777513168 | 12.22° C | 35% | 1019.6 hPa | 0 mm | 1.34 m/s, 353° | - | - |
* Rain latest hour (hover to see other rain measurements)
** Current wind speed in m/s (hover to see current wind gust speed)